Location: Krakow
(50.0830°N, 19.9170°E)
Time: 12:24:38
(UTC+01:00)

Vanguard 2 - Pass Details

Date: 15 December 2023
Orbit: 553 x 2919 km, 32.9° (Epoch: 24 February)

Event Time Altitude Azimuth Distance (km) Brightness Sun altitude
Rises 18:56:17 0° 241° (WSW) 6,149 13.0 -30.4°
Reaches altitude 10° 19:00:22 10° 235° (SW) 5,365 12.4 -31.1°
Maximum altitude 19:15:24 42° 173° (S) 3,743 10.8 -33.5°
Enters shadow 19:20:39 35° 141° (SE) 3,984 10.7 -34.4°
